| time (UTC) | temp F | wind direction | speed knots | gust knots | rain 1hr in | rain 24hr in | rain mn in | humidity % | barometer mb |
| 20260503010053 | 63 | 225 | 0.9 | 6.1 | 0.00 | 0.00 | 0.00 | ||
| 20260503003035 | 66 | 225 | 0.9 | 4.3 | 0.00 | 0.00 | 0.00 | ||
| 20260503000105 | 68 | 266 | 0.0 | 5.2 | 0.00 | 0.00 | 0.00 | ||
| 20260502233044 | 68 | 143 | 2.6 | 5.2 | 0.00 | 0.00 | 0.00 | ||
| 20260502230055 | 74 | 301 | 0.9 | 6.1 | 0.00 | 0.00 | 0.00 | ||
| 20260502223035 | 71 | 160 | 1.7 | 5.2 | 0.00 | 0.00 | 0.00 | ||
| 20260502220101 | 68 | 203 | 0.9 | 6.1 | 0.00 | 0.00 | 0.00 | ||
| 20260502213043 | 67 | 171 | 1.7 | 7.0 | 0.00 | 0.00 | 0.00 | ||
| 20260502210053 | 68 | 226 | 0.9 | 3.5 | 0.00 | 0.00 | 0.00 | ||
| 20260502203034 | 68 | 232 | 0.9 | 4.3 | 0.00 | 0.00 | 0.00 | ||
| 20260502200105 | 68 | 318 | 0.0 | 4.3 | 0.00 | 0.00 | 0.00 | ||
| 20260502193043 | 67 | 30 | 0.9 | 2.6 | 0.00 | 0.00 | 0.00 | ||
| 20260502190053 | 64 | 66 | 1.7 | 5.2 | 0.00 | 0.00 | 0.00 | ||
| 20260502163047 | 55 | 84 | 0.0 | 2.6 | 0.00 | 0.00 | 0.00 | ||
| 20260502123033 | 51 | 283 | 0.0 | 1.7 | 0.00 | 0.00 | 0.00 | ||
| 20260502120104 | 51 | 220 | 0.0 | 0.9 | 0.00 | 0.00 | 0.00 | ||
| 20260502113043 | 51 | 202 | 0.9 | 1.7 | 0.00 | 0.00 | 0.00 | ||
| 20260502110050 | 51 | 269 | 0.0 | 0.9 | 0.00 | 0.00 | 0.00 | ||
| 20260502103036 | 51 | 247 | 0.0 | 0.9 | 0.00 | 0.00 | 0.00 | ||
| 20260502100108 | 51 | 236 | 0.0 | 1.7 | 0.00 | 0.00 | 0.00 | ||
| 20260502070112 | 52 | 250 | 0.9 | 1.7 | 0.00 | 0.00 | 0.00 | ||
| 20260502063027 | 52 | 33 | 0.0 | 3.5 | 0.00 | 0.00 | 0.00 | ||
| 20260502060052 | 52 | 214 | 0.0 | 1.7 | 0.00 | 0.00 | 0.00 | ||
| 20260502053051 | 52 | 221 | 0.9 | 3.5 | 0.00 | 0.00 | 0.00 | ||
| 20260502040056 | 53 | 246 | 0.0 | 1.7 | 0.00 | 0.00 | 0.00 | ||
| 20260502033033 | 53 | 261 | 1.7 | 5.2 | 0.00 | 0.00 | 0.00 | ||
| 20260502020059 | 55 | 256 | 2.6 | 7.8 | 0.00 | 0.00 | 0.00 | ||
| 20260502013041 | 57 | 242 | 1.7 | 5.2 | 0.00 | 0.00 | 0.00 |